Regional Weather Roundup
Issued by NWS

Home | Current Version | Previous Version | Graphics & Text | Print | Product List | Glossary On
Versions: 1 2 3 4 5 6 7 8 9 10 11 12 13 14 15 16 17 18 19 20 21 22 23 24 25 26 27 28 29 30 31 32 33 34 35 36 37 38 39 40 41 42 43 44 45 46 47 48 49 50
000
ASUS43 KDMX 190806
RWRIA

WEATHER ROUNDUP FOR IOWA
NATIONAL WEATHER SERVICE DES MOINES IA
200 AM CST THU JAN 19 2017

NOTE: "FAIR" INDICATES FEW OR NO CLOUDS BELOW 12,000 FEET WITH NO
SIGNIFICANT WEATHER AND/OR OBSTRUCTIONS TO VISIBILITY.

* - THESE STATIONS ARE NOT NWS STATIONS...THUS NOT UNDER NWS
QUALITY CONTROL.  THEY ALSO DO NOT REPORT WEATHER SUCH
AS PRECIPITATION OR FOG.

IAZ001>003-012>014-020>022-031>034-043>046-190900-
   NORTHWEST IOWA

CITY           SKY/WX    TMP DP  RH WIND       PRES   REMARKS
CARROLL *      CLEAR     36  36 100 S9        29.86F WCI  29
CHEROKEE *     CLEAR     35  34  97 S9        29.83S WCI  28
DENISON *      CLEAR     36  34  93 SW5       29.84S WCI  32
LE MARS *      CLEAR     37  34  87 S12       29.80F WCI  30
ORANGE CITY *  CLEAR     36  34  93 S7        29.79S WCI  30
SHELDON *      CLEAR     36  36 100 S12G18    29.77S WCI  27
SIOUX CITY     CLEAR     34  32  92 SE12      29.81F WCI  25
SPENCER        CLEAR     36  33  89 S8        29.81F WCI  30
STORM LAKE *   CLEAR     34  34 100 S13       29.84R WCI  25
$$

IAZ055>058-069>071-079>083-090>094-190900-
   SOUTHWEST IOWA

CITY           SKY/WX    TMP DP  RH WIND       PRES   REMARKS
ATLANTIC *     CLEAR     36  34  93 S8        29.88F WCI  29
AUDUBON *      CLEAR     36  32  87 S5        29.87F FOG     WCI  32
CLARINDA *     MOCLDY    34  34 100 CALM      29.91F
COUNCIL BLFS * CLEAR     34  34 100 S8        29.86R WCI  27
CRESTON *      FOG       34  34 100 S7        29.91F VSB<1/4 WCI  28
HARLAN  *      CLEAR     36  36 100 S7        29.89F WCI  30
LAMONI         MOCLDY    34  34 100 SE5       29.91F FOG     WCI  30
RED OAK *      CLEAR     36  34  93 SE6       29.89S WCI  31
SHENANDOAH *   CLOUDY    36  34  93 SE10      29.89F FOG     WCI  28
$$

IAZ047>049-059>061-072>074-084-190900-
   CENTRAL IOWA

CITY           SKY/WX    TMP DP  RH WIND       PRES   REMARKS
AMES           FOG       34  34 100 S10       29.92S VSB 3/4 WCI  26
ANKENY *       FOG       36  36 100 S7        29.94S VSB 1   WCI  30
BOONE *        FOG       34  34 100 S8        29.89F VSB 1/4 WCI  27
CHARITON *     PTCLDY    32  32 100 SE7       29.93S FOG     WCI  26
DES MOINES     FOG       37  36  96 S7        29.93S VSB 1   WCI  32
GRINNELL*      FOG       32  32  99 S7        29.95S VSB 1/4 WCI  26
KNOXVILLE *    FOG       34  32  93 S8G15     29.93S VSB<1/4 WCI  27
MARSHALLTOWN   FOG       33  33 100 S9        29.93S VSB 1/4 WCI  25
NEWTON *       FOG       34  34 100 S7        29.94S VSB<1/4 WCI  28
PELLA *        FOG       33  33  98 S6        29.96S VSB 1/4 WCI  28
PERRY *        CLOUDY    35  35 100 S10       29.90F FOG     WCI  27
$$

IAZ004>006-015-016-023>025-035-036-190900-
   NORTH CENTRAL IOWA

CITY           SKY/WX    TMP DP  RH WIND       PRES   REMARKS
ALGONA *       CLEAR     34  34 100 S13       29.85S FOG     WCI  25
CLARION *      FOG       32  32 100 S17       29.89S VSB 1/4 WCI  21
ESTHERVILLE    CLEAR     33  33 100 S13       29.81S WCI  24
FORT DODGE *   CLOUDY    34  30  86 S8        29.90R WCI  27
MASON CITY     PTCLDY    32  30  92 S15       29.89S FOG     WCI  22
FOREST CITY *    N/A     32  32 100 S13       29.87S WCI  22
WEBSTER CITY * FOG       34  34 100 S12       29.88S VSB 1/4 WCI  25
IOWA FALLS *   FOG       33  32  96 S12       29.93R VSB 1/2 WCI  25
$$

IAZ007>011-017>019-026>030-037>042-050>054-066-190900-
   NORTHEAST IOWA

CITY           SKY/WX    TMP DP  RH WIND       PRES   REMARKS
CEDAR RAPIDS   FOG       32  32 100 S6        29.96S VSB 1/4 WCI  26
CHARLES CITY * MOCLDY    32  32 100 S10       29.91F FOG     WCI  24
CLINTON *      PTCLDY    31  31 100 SE5       30.01S FOG     WCI  26
DECORAH *      CLOUDY    34  32  93 S6        29.92S WCI  29
DUBUQUE        FOG       33  33 100 S13       29.97S VSB 1/4 WCI  24
MONTICELLO *   FOG       34  34 100 S8        29.98S VSB 1/2 WCI  27
OELWEIN *      FOG       32  32 100 S16       29.95R VSB 1/4 WCI  21
WATERLOO       CLOUDY    32  31  96 S12       29.95R FOG     WCI  23
$$

IAZ064-065-067-068-078-190900-
   EAST CENTRAL IOWA

CITY           SKY/WX    TMP DP  RH WIND       PRES   REMARKS
DAVENPORT      CLOUDY    31  30  96 SE9       30.01R FOG     WCI  23
IOWA CITY      FOG       33  32  96 SE3       30.00F VSB 1/4
MUSCATINE *    FOG       28  28 100 CALM      30.02R VSB 3/4
QUAD CITIES    PTCLDY    29  26  89 NE3       30.01R FOG
$$

IAZ062-063-075>077-085>089-095>099-190900-
   SOUTHEAST IOWA

CITY           SKY/WX    TMP DP  RH WIND       PRES   REMARKS
BURLINGTON     PTCLDY    32  32 100 SE3       29.99F
FAIRFIELD *    CLEAR     30  30 100 SE6       29.97S FOG     WCI  24
FORT MADISON * PTCLDY    36  34  93 SE6       29.98F WCI  31
KEOKUK *       CLOUDY    34  34 100 S3        29.99S
OSKALOOSA *    SNOW      32  32  99 S7        29.97R VSB 1/4 WCI  25
OTTUMWA        FOG       33  31  92 S7        29.95S VSB 1/4 WCI  27
WASHINGTON *   PTCLDY    30  30 100 S6        29.99S FOG     WCI  24
$$

ABBREVIATIONS USED IN REMARKS
   TC - TEMPERATURES IN CELSIUS
  WCI - WIND CHILL INDEX
   HX - HEAT INDEX
  VSB - VISIBILITY
$$




USA.gov is the U.S. government's official web portal to all federal, state and local government web resources and services.